Hourly Weather Markowka

Today, 29 September, Tuesday

Time Temperature Precipitation Wind Pressure Humidity
00:00 +13°C° 0.1 mm 2 mps 743 mmHg 83%
01:00 +13°C° 0 mm 2 mps 743 mmHg 88%
02:00 +13°C° 0.1 mm 2 mps 742 mmHg 88%
03:00 +13°C° 0.1 mm 2 mps 742 mmHg 89%
04:00 +12°C° 0.1 mm 2 mps 742 mmHg 89%
05:00 +12°C° 0.1 mm 2 mps 742 mmHg 89%
06:00 +13°C° 0.1 mm 2 mps 742 mmHg 89%
07:00 +13°C° 0 mm 2 mps 742 mmHg 87%
08:00 +13°C° 0 mm 2 mps 742 mmHg 85%
09:00 +14°C° 0 mm 2 mps 743 mmHg 83%
10:00 +14°C° 0 mm 2 mps 743 mmHg 81%
11:00 +14°C° 0 mm 2 mps 743 mmHg 80%
12:00 +15°C° 0 mm 2 mps 743 mmHg 80%
13:00 +15°C° 0 mm 2 mps 743 mmHg 81%
14:00 +15°C° 0.1 mm 2 mps 743 mmHg 81%
15:00 +15°C° 0.1 mm 2 mps 743 mmHg 82%
16:00 +15°C° 0.1 mm 2 mps 743 mmHg 82%
17:00 +14°C° 0.3 mm 2 mps 743 mmHg 84%
18:00 +14°C° 0.3 mm 2 mps 744 mmHg 86%
19:00 +14°C° 0.3 mm 2 mps 744 mmHg 88%
20:00 +14°C° 0.2 mm 2 mps 744 mmHg 89%
21:00 +13°C° 0.2 mm 2 mps 744 mmHg 91%
22:00 +13°C° 0.2 mm 2 mps 744 mmHg 92%
23:00 +13°C° 0 mm 2 mps 744 mmHg 92%

Tomorrow, 30 September, Wednesday

Time Temperature Precipitation Wind Pressure Humidity
00:00 +12°C° 0 mm 3 mps 744 mmHg 93%
01:00 +11°C° 0 mm 3 mps 744 mmHg 94%
02:00 +11°C° 0 mm 3 mps 744 mmHg 94%
03:00 +11°C° 0 mm 3 mps 743 mmHg 93%
04:00 +10°C° 0 mm 3 mps 743 mmHg 93%
05:00 +11°C° 0 mm 3 mps 743 mmHg 91%
06:00 +11°C° 0 mm 4 mps 743 mmHg 89%
07:00 +11°C° 0 mm 4 mps 743 mmHg 87%
08:00 +12°C° 0 mm 4 mps 743 mmHg 84%
09:00 +12°C° 0 mm 4 mps 743 mmHg 81%
10:00 +13°C° 0 mm 4 mps 743 mmHg 78%
11:00 +14°C° 0 mm 4 mps 743 mmHg 77%
12:00 +15°C° 0 mm 5 mps 742 mmHg 75%
13:00 +16°C° 0 mm 5 mps 742 mmHg 73%
14:00 +16°C° 0 mm 5 mps 742 mmHg 74%
15:00 +17°C° 0 mm 4 mps 742 mmHg 75%
16:00 +17°C° 0 mm 4 mps 742 mmHg 76%
17:00 +15°C° 0 mm 4 mps 742 mmHg 77%
18:00 +15°C° 0 mm 5 mps 742 mmHg 79%
19:00 +14°C° 0 mm 5 mps 742 mmHg 80%
20:00 +14°C° 0 mm 4 mps 741 mmHg 82%
21:00 +14°C° 0 mm 4 mps 741 mmHg 83%
22:00 +14°C° 0 mm 3 mps 741 mmHg 84%
23:00 +13°C° 0.2 mm 3 mps 741 mmHg 85%

Day after tomorrow, 1 October, Thursday

Time Temperature Precipitation Wind Pressure Humidity
00:00 +13°C° 0.2 mm 3 mps 740 mmHg 87%
01:00 +13°C° 0.2 mm 3 mps 740 mmHg 88%
02:00 +13°C° 0.3 mm 4 mps 740 mmHg 89%
03:00 +12°C° 0.3 mm 4 mps 740 mmHg 90%
04:00 +12°C° 0.3 mm 4 mps 739 mmHg 91%
05:00 +12°C° 0.2 mm 4 mps 739 mmHg 90%
06:00 +12°C° 0.2 mm 3 mps 739 mmHg 90%
07:00 +12°C° 0.2 mm 3 mps 738 mmHg 89%
08:00 +12°C° 0.1 mm 3 mps 738 mmHg 86%
09:00 +13°C° 0.1 mm 3 mps 738 mmHg 83%
10:00 +13°C° 0.1 mm 3 mps 738 mmHg 79%
11:00 +13°C° 0 mm 3 mps 738 mmHg 77%
12:00 +13°C° 0 mm 3 mps 738 mmHg 75%
13:00 +13°C° 0 mm 3 mps 737 mmHg 73%
14:00 +13°C° 0 mm 3 mps 737 mmHg 74%
15:00 +13°C° 0 mm 3 mps 737 mmHg 75%
16:00 +13°C° 0 mm 3 mps 737 mmHg 76%
17:00 +13°C° 0 mm 3 mps 738 mmHg 78%
18:00 +12°C° 0 mm 3 mps 738 mmHg 81%
19:00 +13°C° 0 mm 2 mps 738 mmHg 84%
20:00 +12°C° 0 mm 2 mps 738 mmHg 87%
21:00 +12°C° 0 mm 2 mps 738 mmHg 90%
22:00 +12°C° 0 mm 2 mps 738 mmHg 93%
23:00 +12°C° 0 mm 2 mps 738 mmHg 94%

2 October, Friday

Time Temperature Precipitation Wind Pressure Humidity
00:00 +10°C° 0 mm 2 mps 738 mmHg 95%
01:00 +10°C° 0 mm 2 mps 738 mmHg 95%
02:00 +10°C° 0 mm 2 mps 738 mmHg 95%
03:00 +10°C° 0 mm 2 mps 738 mmHg 95%
04:00 +10°C° 0 mm 2 mps 738 mmHg 96%
05:00 +10°C° 0 mm 2 mps 738 mmHg 95%
06:00 +10°C° 0 mm 2 mps 738 mmHg 94%
07:00 +10°C° 0 mm 2 mps 739 mmHg 94%
08:00 +12°C° 0 mm 3 mps 739 mmHg 86%
09:00 +13°C° 0 mm 3 mps 739 mmHg 79%
10:00 +16°C° 0 mm 3 mps 739 mmHg 72%
11:00 +16°C° 0 mm 3 mps 739 mmHg 71%
12:00 +17°C° 0 mm 4 mps 739 mmHg 69%
13:00 +17°C° 0 mm 4 mps 739 mmHg 67%
14:00 +17°C° 0.1 mm 4 mps 739 mmHg 69%
15:00 +17°C° 0.1 mm 4 mps 739 mmHg 71%
16:00 +17°C° 0.1 mm 4 mps 739 mmHg 73%
17:00 +15°C° 0 mm 4 mps 739 mmHg 77%
18:00 +14°C° 0 mm 4 mps 739 mmHg 82%
19:00 +13°C° 0 mm 4 mps 739 mmHg 87%
20:00 +12°C° 0 mm 5 mps 739 mmHg 88%
21:00 +12°C° 0 mm 5 mps 739 mmHg 88%
22:00 +12°C° 0 mm 5 mps 739 mmHg 89%
23:00 +12°C° 0 mm 5 mps 738 mmHg 88%

3 October, Saturday

Time Temperature Precipitation Wind Pressure Humidity
00:00 +12°C° 0 mm 5 mps 738 mmHg 88%
01:00 +11°C° 0 mm 6 mps 738 mmHg 87%
02:00 +11°C° 0 mm 6 mps 737 mmHg 85%
03:00 +13°C° 0 mm 6 mps 737 mmHg 83%
04:00 +12°C° 0 mm 7 mps 737 mmHg 81%
05:00 +12°C° 0 mm 7 mps 737 mmHg 83%
06:00 +12°C° 0 mm 7 mps 736 mmHg 85%
07:00 +12°C° 0 mm 8 mps 736 mmHg 86%
08:00 +15°C° 0 mm 8 mps 736 mmHg 79%
09:00 +17°C° 0 mm 8 mps 736 mmHg 72%
10:00 +18°C° 0 mm 8 mps 735 mmHg 65%
11:00 +21°C° 0 mm 7 mps 735 mmHg 60%
12:00 +22°C° 0 mm 7 mps 735 mmHg 55%
13:00 +23°C° 0 mm 6 mps 735 mmHg 51%
14:00 +23°C° 0 mm 6 mps 735 mmHg 54%
15:00 +22°C° 0 mm 5 mps 734 mmHg 57%
16:00 +21°C° 0 mm 4 mps 734 mmHg 60%
17:00 +21°C° 0 mm 5 mps 734 mmHg 61%
18:00 +20°C° 0 mm 5 mps 734 mmHg 62%
19:00 +20°C° 0 mm 5 mps 734 mmHg 63%
20:00 +20°C° 0 mm 6 mps 734 mmHg 63%
21:00 +19°C° 0 mm 6 mps 733 mmHg 63%
22:00 +19°C° 0 mm 6 mps 733 mmHg 63%
23:00 +18°C° 0 mm 7 mps 733 mmHg 62%

4 October, Sunday

Time Temperature Precipitation Wind Pressure Humidity
00:00 +18°C° 0 mm 7 mps 732 mmHg 62%
01:00 +18°C° 0 mm 7 mps 732 mmHg 61%
02:00 +18°C° 0 mm 7 mps 732 mmHg 62%
03:00 +18°C° 0 mm 7 mps 731 mmHg 62%
04:00 +18°C° 0 mm 7 mps 731 mmHg 62%
05:00 +19°C° 0 mm 6 mps 732 mmHg 63%
06:00 +19°C° 0 mm 6 mps 732 mmHg 63%
07:00 +19°C° 0 mm 6 mps 733 mmHg 63%
08:00 +19°C° 0 mm 6 mps 733 mmHg 62%
09:00 +20°C° 0 mm 6 mps 734 mmHg 61%
10:00 +20°C° 0 mm 6 mps 735 mmHg 60%
11:00 +20°C° 0 mm 6 mps 735 mmHg 57%
12:00 +21°C° 0 mm 5 mps 736 mmHg 54%
13:00 +21°C° 0 mm 4 mps 737 mmHg 51%
14:00 +21°C° 0 mm 4 mps 737 mmHg 52%
15:00 +20°C° 0 mm 3 mps 737 mmHg 54%
16:00 +20°C° 0 mm 2 mps 737 mmHg 55%
17:00 +19°C° 0 mm 2 mps 737 mmHg 58%
18:00 +19°C° 0 mm 1 mps 738 mmHg 61%
19:00 +16°C° 0 mm 1 mps 738 mmHg 64%
20:00 +16°C° 0 mm 2 mps 738 mmHg 64%
21:00 +16°C° 0 mm 2 mps 738 mmHg 65%
22:00 +16°C° 0 mm 3 mps 738 mmHg 65%
23:00 +14°C° 0 mm 3 mps 738 mmHg 66%
Show more